Tracking 22438 objects as of 25-Feb-2021
HD Live streaming from Space Station
objects crossing your sky now

ORBCOMM FM 103

Track ORBCOMM FM 103 now!
10-day predictions
ORBCOMM FM 103 is classified as:


NORAD ID: 40091
Int'l Code: 2014-040F
Perigee: 715.2 km
Apogee: 718.7 km
Inclination: 47.0 °
Period: 99.0 minutes
Semi major axis: 7087 km
RCS: Unknown
Launch date: July 14, 2014
Source: United States (US)
Launch site: AIR FORCE EASTERN TEST RANGE (AFETR)
aabbcc
Your satellite tracking list
Your tracking list is empty




NASA's NSSDC Master Catalog

Two Line Element Set (TLE):
1 40091U 14040F   21055.52332421  .00000074  00000-0  55377-4 0  9990
2 40091  47.0052 222.6302 0002476 279.7186  80.3418 14.54860009334887
Source of the keplerian elements: AFSPC